Leesburg, FL

10:02 PM EDT on May 29, 2017 (GMT -0400)
Leesburg Regional

Weather History for KLEE - August, 2013

Change the Weather History Date:

Friday, August 9, 2013

  Actual Average Record
Temperature  
Mean Temperature 83 °F -  
Max Temperature 91 °F 91 °F 99 °F (1991)
Min Temperature 75 °F 72 °F 65 °F (1978)
Cooling Degree Days 18    
Growing Degree Days 33 (Base 50)    
Moisture  
Dew Point 74 °F    
Average Humidity 83    
Maximum Humidity 94    
Minimum Humidity 52    
Precipitation  
Precipitation 1.55 in - - ()
Sea Level Pressure  
Sea Level Pressure 30.05 in    
Wind  
Wind Speed 6 mph (East)    
Max Wind Speed 17 mph    
Max Gust Speed 30 mph    
Visibility 7 miles    
Events Fog , Rain    
Averages and records for this station are not official NWS values.
T = Trace of Precipitation, MM = Missing Value Source: NWS Daily Summary

Daily Weather History Graph

Daily Weather History Graph

Search for Another Location

Airport or City:

Trip Planner

Search our weather history database for the weather conditions in past years. The results will help you decide how hot, cold, wet, or windy it might be!

Date:

Astronomy

Aug. 09, 2013 Rise Set
Actual Time 6:53 AM EDT 8:11 PM EDT
Civil Twilight 6:27 AM EDT 8:36 PM EDT
Nautical Twilight 5:58 AM EDT 9:06 PM EDT
Astronomical Twilight 5:26 AM EDT 9:37 PM EDT
Moon 9:19 AM EDT (8/9) 9:41 PM EDT (8/9)
Length of Visible Light 14h 09m
Length of Day
13h 18m
Waxing Crescent, 7% of the Moon is Illuminated
Aug 9
Waxing Crescent
Aug 14
First Quarter
Aug 20
Full
Aug 28
Last Quarter
Sep 5
New

Hourly Weather History & Observations

Time (EDT) Temp. Heat Index Dew Point Humidity Pressure Visibility Wind Dir Wind Speed Gust Speed Precip Events Conditions
12:53 AM 81.0 °F 86.7 °F 75.0 °F 82% 30.04 in 10.0 mi ESE 6.9 mph - N/A   Clear
1:53 AM 81.0 °F 87.3 °F 75.9 °F 85% 30.03 in 10.0 mi ESE 12.7 mph - N/A   Clear
2:53 AM 80.1 °F 85.4 °F 75.9 °F 87% 30.02 in 10.0 mi ESE 3.5 mph - N/A   Clear
3:53 AM 79.0 °F - 75.0 °F 88% 30.01 in 10.0 mi East 4.6 mph - N/A   Clear
4:53 AM 79.0 °F - 75.0 °F 88% 30.00 in 10.0 mi ESE 10.4 mph - N/A   Clear
5:53 AM 78.1 °F - 75.0 °F 90% 30.01 in 10.0 mi SE 8.1 mph - N/A   Clear
6:53 AM 78.1 °F - 75.0 °F 90% 30.03 in 10.0 mi SE 3.5 mph - N/A   Partly Cloudy
7:53 AM 80.1 °F 85.4 °F 75.9 °F 87% 30.05 in 10.0 mi ESE 3.5 mph - N/A   Clear
8:32 AM 82.4 °F 89.5 °F 75.2 °F 79% 30.06 in 10.0 mi Calm Calm - N/A   Mostly Cloudy
8:53 AM 82.9 °F 90.8 °F 75.9 °F 79% 30.06 in 10.0 mi ESE 3.5 mph - N/A   Scattered Clouds
9:53 AM 84.0 °F 91.9 °F 75.0 °F 74% 30.07 in 10.0 mi ESE 8.1 mph - N/A   Scattered Clouds
10:53 AM 86.0 °F 95.1 °F 75.0 °F 70% 30.09 in 10.0 mi SE 5.8 mph - N/A   Mostly Cloudy
11:53 AM 89.1 °F 98.0 °F 73.9 °F 61% 30.09 in 10.0 mi Calm Calm - N/A   Partly Cloudy
12:53 PM 90.0 °F 96.9 °F 72.0 °F 55% 30.07 in 10.0 mi SE 3.5 mph - N/A   Clear
1:53 PM 91.9 °F 99.5 °F 72.0 °F 52% 30.06 in 10.0 mi Calm Calm - N/A   Scattered Clouds
2:53 PM 84.9 °F 93.3 °F 75.0 °F 72% 30.06 in 10.0 mi Calm Calm - 0.01 in   Scattered Clouds
3:53 PM 91.0 °F 100.4 °F 73.9 °F 57% 30.03 in 10.0 mi North 4.6 mph - N/A   Partly Cloudy
4:48 PM 77.0 °F - 73.4 °F 89% 30.05 in 0.8 mi South 17.3 mph 27.6 mph 0.26 in Rain Light Rain
4:53 PM 75.9 °F - 73.0 °F 91% 30.06 in 0.2 mi ENE 12.7 mph 28.8 mph 0.54 in Fog , Rain Heavy Rain
5:01 PM 78.8 °F - 69.8 °F 74% 30.03 in 0.2 mi NE 11.5 mph 29.9 mph 0.27 in Rain Heavy Rain
5:07 PM 75.2 °F - 71.6 °F 89% 30.04 in 2.5 mi NNE 12.7 mph 19.6 mph 0.27 in Rain Light Rain
5:14 PM 77.0 °F - 73.4 °F 89% 30.04 in 9.0 mi NE 12.7 mph - 0.27 in Rain Light Rain
5:44 PM 77.0 °F - 73.4 °F 89% 30.04 in 10.0 mi North 11.5 mph - 0.28 in   Mostly Cloudy
5:53 PM 78.1 °F - 73.9 °F 87% 30.04 in 10.0 mi NNW 6.9 mph - 0.28 in   Mostly Cloudy
6:05 PM 78.8 °F - 75.2 °F 89% 30.05 in 1.8 mi Variable 5.8 mph - 0.06 in Rain Heavy Rain
6:15 PM 78.8 °F - 75.2 °F 89% 30.05 in 3.0 mi West 3.5 mph - 0.08 in Rain Light Rain
6:45 PM 78.8 °F - 75.2 °F 89% 30.06 in 1.2 mi Calm Calm - 0.13 in Rain Light Rain
6:53 PM 78.1 °F - 75.0 °F 90% 30.06 in 1.0 mi WNW 5.8 mph - 0.15 in Rain Light Rain
7:15 PM 77.0 °F - 75.2 °F 94% 30.07 in 0.8 mi NNE 10.4 mph - 0.34 in Rain Heavy Rain
7:29 PM 77.0 °F - 73.4 °F 89% 30.07 in 1.2 mi NE 8.1 mph - 0.54 in Rain Heavy Rain
7:37 PM 77.0 °F - 73.4 °F 89% 30.07 in 3.0 mi Calm Calm - 0.56 in Rain Rain
7:53 PM 77.0 °F - 73.9 °F 90% 30.07 in 10.0 mi Calm Calm - 0.57 in   Mostly Cloudy
8:53 PM 77.0 °F - 75.0 °F 94% 30.07 in 10.0 mi ENE 3.5 mph - 0.00 in Rain Light Rain
9:53 PM 77.0 °F - 75.0 °F 94% 30.08 in 10.0 mi ENE 4.6 mph - 0.00 in   Clear
10:53 PM 78.1 °F - 75.9 °F 93% 30.09 in 10.0 mi ENE 4.6 mph - N/A   Clear
11:53 PM 78.1 °F - 75.0 °F 90% 30.09 in 10.0 mi East 3.5 mph - N/A   Clear